[[{"header":{"parameterUnit":"m.s-1","parameterCategory":1,"la1":30.2991,"la2":30.254,"lo1":-89.0895,"lo2":-89.0444,"dy":0.0017,"dx":0.0017,"nx":28,"ny":28,"refTime":"2025-05-24T03:00:00:Z","depth":0,"parameterNumber":2,"parameterNumberName":"U-component_of_WINDS"},"data":[0,0,0,0,0,0,0,0,0,0,0,0,0,0,0,0,0,0,0,0,0,0,0,0,0,0,0,0,0,0,0,0,0,0,0,0,0,0,0,0,0,0,0,0,0,0,0,0,0,0,0,0,0,0,0,0,0,0,0.4663,0.4664,0,0.4723,0.4724,0.4725,0.4702,0.4701,0.4699,0.4698,0.4763,0.4766,0.4769,0,0,0,0,0,0,0,0,0,0,0,0,0,0.4532,0.4535,0.4663,0.4664,0.4665,0.4723,0.4724,0.4725,0.4702,0.4701,0.4699,0.4698,0.4762,0.4765,0.4769,0,0,0,0,0,0,0,0,0,0,0,0,0,0.459,0.4535,0.4663,0.4661,0.4661,0.4723,0.4724,0.4725,0.4703,0.4701,0.4699,0.4697,0.4761,0.4765,0.4769,0.4839,0,0,0.4783,0.4785,0,0,0,0,0,0,0,0,0.4587,0.4595,0.466,0.4661,0.4661,0.4703,0.4701,0.4763,0.4703,0.4687,0.4698,0.4696,0.4745,0.475,0.4766,0.4842,0.4844,0.4784,0.4786,0.4788,0.479,0,0,0,0,0,0,0,0.4583,0.4593,0.4687,0.4661,0.4662,0.4657,0.4663,0.4713,0.4727,0.4688,0.4687,0.4694,0.4745,0.4762,0.4768,0.4845,0.4783,0.4787,0.479,0.4792,0.4981,0.4983,0,0,0,0,0,0,0.4578,0.4589,0.4685,0.4689,0.4618,0.4661,0.4668,0.4692,0.4726,0.4729,0.4696,0.4693,0.4755,0.4762,0.477,0.4853,0.4788,0.4792,0.4795,0.4978,0.4981,0.4984,0,0,0,0,0,0,0.4576,0.4587,0.4683,0.4639,0.465,0.4666,0.4693,0.4694,0.4711,0.4732,0.4734,0.4711,0.4754,0.4764,0.4821,0.4855,0.4794,0.4799,0.4976,0.4979,0.4982,0.502,0,0,0,0,0,0,0.4572,0.4586,0.4612,0.4639,0.4653,0.4732,0.4695,0.4697,0.4719,0.4715,0.4747,0.475,0.4753,0.4815,0.4826,0.486,0.4802,0.4973,0.4977,0.4981,0.5016,0.5024,0.5032,0,0,0,0,0,0.4567,0.4621,0.4613,0.4625,0.4685,0.4734,0.4742,0.4744,0.4722,0.4748,0.4761,0.4749,0.485,0.4821,0.4833,0.4869,0.4971,0.4976,0.4981,0.5012,0.5023,0.5031,0,0,0,0,0,0,0.4598,0.4624,0.4616,0.468,0.4705,0.473,0.4764,0.4755,0.4788,0.4783,0.4785,0.4793,0.4852,0.4867,0.4834,0.4938,0.4907,0.4915,0.4926,0.4936,0.4944,0.494,0.4806,0,0,0,0,0,0.4612,0.4649,0.467,0.4724,0.4737,0.4748,0.477,0.4769,0.4796,0.4806,0.4824,0.4851,0.4888,0.4913,0.4949,0.5018,0.5025,0.5049,0.5057,0.5063,0.507,0.5108,0.5119,0.5001,0.5001,0.5001,0,0,0.4641,0.466,0.4684,0.4731,0.475,0.4789,0.4758,0.48,0.4829,0.4813,0.4868,0.4882,0.4913,0.4976,0.5005,0.499,0.5104,0.507,0.5075,0.5078,0.5114,0.5125,0.5135,0.5004,0.5004,0.5003,0,0,0.4715,0.4733,0.478,0.48,0.4829,0.4836,0.4848,0.4875,0.4883,0.4938,0.4927,0.4962,0.5027,0.5049,0.5069,0.5151,0.5141,0.5163,0.5204,0.5241,0.525,0.5259,0.5288,0.5299,0.517,0.517,0.517,0,0.4748,0.4806,0.4806,0.4849,0.487,0.4857,0.4905,0.4925,0.4964,0.498,0.4962,0.5043,0.5063,0.5131,0.5151,0.5168,0.5182,0.5159,0.5249,0.5257,0.5265,0.5293,0.5304,0.5172,0.5172,0.5172,0.5172,0,0.4845,0.4885,0.492,0.4958,0.4983,0.5029,0.5036,0.5062,0.506,0.5069,0.5126,0.5149,0.5189,0.5205,0.5204,0.5274,0.5264,0.5248,0.5216,0.5278,0.5305,0.5316,0.5176,0.5175,0.5174,0.5174,0,0,0.4939,0.4976,0.4989,0.5006,0.5038,0.5069,0.5115,0.5153,0.5175,0.5204,0.5242,0.5297,0.5282,0.5305,0.5306,0.5338,0.5402,0.5318,0.5318,0.5333,0.5482,0.5494,0.5506,0.5395,0.5398,0.5399,0.5479,0,0.5015,0.5094,0.5095,0.5168,0.5205,0.5193,0.5233,0.5257,0.5267,0.5301,0.5312,0.5351,0.5329,0.5342,0.5374,0.5387,0.5432,0.5382,0.5432,0.5434,0.5425,0.552,0.5533,0.5607,0.5489,0.5491,0.5493,0,0.5114,0.5145,0.522,0.5247,0.5262,0.5298,0.5333,0.5366,0.5393,0.5398,0.5423,0.5419,0.5467,0.5434,0.55,0.5465,0.5486,0.5497,0.5499,0.5504,0.5467,0.5527,0.5631,0.5642,0.5509,0.5508,0.5506,0,0.5175,0.5235,0.5288,0.5303,0.5335,0.5361,0.5375,0.5401,0.5424,0.5455,0.5471,0.5508,0.5528,0.5557,0.5564,0.5539,0.563,0.5597,0.5636,0.5636,0.5656,0.5654,0.5764,0.5669,0.5669,0.5669,0.5669,0,0.526,0.5307,0.5316,0.5349,0.5401,0.5403,0.5456,0.5469,0.5491,0.5527,0.5519,0.5553,0.556,0.5596,0.5601,0.5655,0.5664,0.567,0.5671,0.5671,0.567,0.5685,0.568,0.5672,0.5671,0.5671,0.567,0,0.5336,0.5345,0.5402,0.5427,0.5435,0.5472,0.5495,0.5527,0.5536,0.5581,0.5592,0.5607,0.5649,0.5658,0.5708,0.5712,0.5776,0.5772,0.5766,0.5766,0.5804,0.58,0.5926,0.5943,0.5838,0.5839,0.584,0,0.5389,0.5425,0.5454,0.5477,0.5493,0.553,0.5553,0.5557,0.5582,0.5616,0.5644,0.5685,0.5717,0.5785,0.5801,0.5839,0.5836,0.5878,0.5842,0.584,0.5837,0.5834,0.5838,0.5884,0.5886,0.5887,0.5887,0,0.5483,0.5485,0.5519,0.5554,0.5582,0.561,0.5637,0.5657,0.5664,0.5693,0.5735,0.576,0.581,0.5851,0.5889,0.5906,0.5898,0.5898,0.5909,0.591,0.5905,0.5908,0.5785,0.5896,0.5895,0.5894,0.5894,0.5893,0.5549,0.5581,0.5606,0.5644,0.5664,0.569,0.5721,0.5734,0.5769,0.5809,0.581,0.5856,0.5883,0.5934,0.5953,0.5989,0.5977,0.5993,0.5997,0.6,0.6004,0.5899,0.5996,0.5996,0.5996,0.5996,0.5996,0,0.5642,0.5658,0.5693,0.573,0.576,0.575,0.5779,0.5805,0.5845,0.5871,0.5903,0.5952,0.5992,0.6011,0.605,0.6076,0.6074,0.6086,0.6084,0.6088,0.6013,0.6,0.6088,0.6088,0.6088,0.6088,0.6088,0.6088,0.5694,0.5746,0.5752,0.5815,0.5831,0.5875,0.5893,0.5916,0.5937,0.5991,0.6024,0.6036,0.6059,0.61,0.6137,0.6141,0.6156,0.6171,0.6174,0.6103,0.6094,0.6085,0.6072,0.6174,0.6174,0.6246,0.6247,0.6247]},{"header":{"parameterUnit":"m.s-1","parameterCategory":1,"la1":30.2991,"la2":30.254,"lo1":-89.0895,"lo2":-89.0444,"dy":0.0017,"dx":0.0017,"nx":28,"ny":28,"refTime":"2025-05-24T03:00:00:Z","depth":0,"parameterNumber":3,"parameterNumberName":"V-component_of_WINDS"},"data":[0,0,0,0,0,0,0,0,0,0,0,0,0,0,0,0,0,0,0,0,0,0,0,0,0,0,0,0,0,0,0,0,0,0,0,0,0,0,0,0,0,0,0,0,0,0,0,0,0,0,0,0,0,0,0,0,0,0,2.9175,2.9176,0,2.9234,2.9235,2.9236,2.918,2.9178,2.9176,2.9173,2.923,2.9234,2.9237,0,0,0,0,0,0,0,0,0,0,0,0,0,2.9011,2.9015,2.9175,2.9176,2.9177,2.9234,2.9235,2.9236,2.918,2.9178,2.9175,2.9172,2.9229,2.9234,2.9238,0,0,0,0,0,0,0,0,0,0,0,0,0,2.9078,2.9016,2.9175,2.9156,2.9155,2.9234,2.9235,2.9236,2.9181,2.9178,2.9174,2.9171,2.9228,2.9233,2.9238,2.9338,0,0,2.9255,2.9257,0,0,0,0,0,0,0,0,2.9074,2.9084,2.9158,2.9158,2.9156,2.9196,2.9198,2.927,2.9182,2.9171,2.9173,2.917,2.9222,2.9227,2.9246,2.9341,2.9343,2.9255,2.9259,2.9261,2.9262,0,0,0,0,0,0,0,2.9069,2.9081,2.9198,2.9159,2.9158,2.9144,2.9149,2.9211,2.9214,2.9172,2.9168,2.9176,2.922,2.924,2.9246,2.9344,2.9255,2.926,2.9263,2.9265,2.9524,2.9527,0,0,0,0,0,0,2.9067,2.9077,2.9197,2.92,2.9106,2.9149,2.9156,2.9187,2.9213,2.9214,2.9178,2.9173,2.9233,2.924,2.9248,2.9367,2.9261,2.9266,2.9269,2.952,2.9525,2.9528,0,0,0,0,0,0,2.9064,2.9079,2.9194,2.9138,2.9151,2.9156,2.9191,2.919,2.921,2.9219,2.9218,2.9199,2.9231,2.9241,2.9316,2.9368,2.9268,2.9273,2.9516,2.9521,2.9527,2.9605,0,0,0,0,0,0,2.906,2.9078,2.9116,2.9139,2.9155,2.9263,2.9194,2.9193,2.922,2.9213,2.9237,2.9238,2.9229,2.9309,2.9322,2.9374,2.9277,2.9511,2.9518,2.9525,2.9597,2.9612,2.9625,0,0,0,0,0,2.9054,2.9135,2.9119,2.9133,2.9203,2.9266,2.9274,2.9263,2.9224,2.9262,2.9268,2.9237,2.936,2.9317,2.9331,2.9385,2.9508,2.9516,2.9524,2.9591,2.9609,2.9624,0,0,0,0,0,0,2.9117,2.9138,2.912,2.9211,2.9237,2.9256,2.9304,2.9282,2.9319,2.9311,2.9294,2.93,2.938,2.939,2.9341,2.9483,2.9428,2.9439,2.9474,2.9491,2.9504,2.95,2.9282,0,0,0,0,0,2.9142,2.9192,2.9207,2.9286,2.93,2.93,2.9327,2.9316,2.9342,2.9352,2.9363,2.9389,2.9433,2.9462,2.9503,2.9599,2.9603,2.9643,2.9656,2.9667,2.9678,2.9729,2.9746,2.9555,2.9555,2.9555,0,0,2.9193,2.9211,2.9243,2.9299,2.9318,2.937,2.931,2.9366,2.9404,2.936,2.9433,2.9442,2.9469,2.9555,2.9593,2.9566,2.9731,2.9678,2.9687,2.9691,2.9739,2.9757,2.9773,2.9561,2.956,2.9559,0,0,2.9313,2.9332,2.94,2.942,2.945,2.945,2.9466,2.9489,2.9494,2.9566,2.9535,2.9578,2.9655,2.9676,2.9696,2.9824,2.9798,2.9838,2.9909,2.9959,2.9974,2.9987,3.0033,3.005,2.9848,2.9848,2.9848,0,2.9373,2.945,2.9437,2.9497,2.9522,2.9486,2.9554,2.9574,2.9616,2.9634,2.9602,2.9698,2.9714,2.9804,2.9836,2.9853,2.9871,2.9835,2.9973,2.9986,2.9998,3.0042,3.0059,2.9853,2.9853,2.9852,2.9852,0,2.9522,2.9576,2.9627,2.967,2.9701,2.9764,2.976,2.9793,2.9779,2.9781,2.9856,2.9873,2.9918,2.9938,2.9925,3.0027,3.0009,2.9976,2.992,3.0022,3.0062,3.0079,2.986,2.9858,2.9857,2.9856,0,0,2.9683,2.9718,2.9737,2.9756,2.9787,2.9827,2.9889,2.9933,2.9962,2.9991,3.0042,3.0108,3.0078,3.0101,3.009,3.0134,3.0234,3.0095,3.0095,3.012,3.0348,3.0373,3.0392,3.0217,3.022,3.0222,3.0345,0,2.9804,2.9913,2.9903,3.0005,3.0055,3.0021,3.0075,3.0099,3.0103,3.0144,3.0148,3.0195,3.0152,3.0166,3.0208,3.0213,3.028,3.0204,3.0263,3.0265,3.0258,3.0413,3.0439,3.0555,3.0361,3.0364,3.0366,0,2.996,2.9997,3.0104,3.0128,3.0148,3.0196,3.0236,3.0277,3.0303,3.0303,3.0329,3.031,3.0371,3.0314,3.0398,3.0347,3.037,3.0376,3.0381,3.0386,3.0322,3.0422,3.0591,3.0609,3.039,3.0388,3.0387,0,3.0067,3.0143,3.0217,3.0234,3.0263,3.0298,3.0312,3.0335,3.0362,3.0396,3.0414,3.0455,3.0477,3.0509,3.0501,3.046,3.0587,3.0529,3.0588,3.0588,3.0616,3.0614,3.0791,3.0631,3.0631,3.063,3.063,0,3.0203,3.027,3.0266,3.0312,3.0386,3.0373,3.0447,3.0456,3.0476,3.0523,3.0496,3.0539,3.0526,3.0569,3.0563,3.0634,3.0644,3.0645,3.0642,3.0647,3.0647,3.0662,3.0654,3.0635,3.0634,3.0633,3.0632,0,3.0335,3.0335,3.0414,3.0435,3.0442,3.0496,3.0513,3.0556,3.0558,3.0617,3.063,3.0632,3.0682,3.0677,3.0732,3.0728,3.0815,3.0803,3.0807,3.0804,3.0863,3.0858,3.1056,3.1082,3.0905,3.0907,3.0908,0,3.0422,3.0473,3.0501,3.053,3.0546,3.0594,3.0622,3.0612,3.0642,3.0676,3.0715,3.0762,3.0798,3.0878,3.0885,3.0926,3.0915,3.0982,3.0921,3.0925,3.0916,3.0914,3.0918,3.0994,3.0996,3.0997,3.0999,0,3.0577,3.0574,3.0616,3.0659,3.0694,3.0726,3.0756,3.0782,3.0774,3.0809,3.086,3.0889,3.0945,3.0992,3.1032,3.1044,3.1021,3.1018,3.1034,3.1039,3.1039,3.104,3.0839,3.1013,3.1012,3.1011,3.101,3.1009,3.0689,3.0733,3.0759,3.0807,3.0828,3.0857,3.0898,3.0906,3.0948,3.0994,3.0985,3.1042,3.1067,3.1118,3.1134,3.1178,3.1154,3.1177,3.1183,3.1189,3.1196,3.1033,3.1185,3.1185,3.1184,3.1184,3.1184,0,3.0842,3.0857,3.0902,3.0945,3.0982,3.0958,3.0989,3.1022,3.1073,3.1098,3.1136,3.1194,3.1239,3.1249,3.1293,3.1326,3.1316,3.1337,3.1335,3.1338,3.1215,3.1197,3.1345,3.1345,3.1345,3.1345,3.1344,3.1344,3.0926,3.0999,3.1,3.1083,3.1098,3.1154,3.1174,3.12,3.1221,3.1287,3.1325,3.1332,3.1351,3.1396,3.1436,3.1438,3.1455,3.1481,3.1478,3.1363,3.1347,3.1331,3.1314,3.1485,3.1485,3.1598,3.1599,3.16]}]]